Hourly Data Report for November 08, 2016

All times are specified in Local Standard Time (LST). Add 1 hour to adjust for Daylight Saving Time where and when it is observed.

VICTORIA UNIVERSITY CS
BRITISH COLUMBIA

48°27'25.200" N
123°18'16.600" W
60.10 m
1018598
71783
WYJ

Download Data

Hourly Data (November 2016)
Hourly Data Report for November 8, 2016
TIME Temp Definition
°C
Dew Point Definition
°C
Rel Hum Definition
%
Wind Dir Definition
10's deg

Wind Spd Definition
km/h
Visibility Definition
km
Stn Press Definition
kPa
Hmdx Definition


Wind Chill Definition


Weather Definition


00:00 12.8 9.8 82 4 3   100.82     LegendNANA
01:00 12.5 9.8 84 10 2   100.82     LegendNANA
02:00 13.3 9.8 80 12 4   100.81     LegendNANA
03:00 13.2 10.0 81 16 6   100.77     LegendNANA
04:00 12.9 9.7 81 12 3   100.74     LegendNANA
05:00 11.7 9.6 87 11 2   100.72     LegendNANA
06:00 11.1 9.7 92 11 3   100.71     LegendNANA
07:00 13.3 9.8 79 15 8   100.75     LegendNANA
08:00 13.1 9.8 80 5 2   100.80     LegendNANA
09:00 14.1 10.1 76 7 5   100.84     LegendNANA
10:00 14.6 10.6 77 2 6   100.85     LegendNANA
11:00 14.8 10.6 76 36 7   100.90     LegendNANA
12:00 15.3 10.4 73 10 4   100.86     LegendNANA
13:00 15.9 9.9 68 13 3   100.82     LegendNANA
14:00 18.7 11.0 61 25 3   100.77     LegendNANA
15:00 14.8 10.3 75 33 1   100.73     LegendNANA
16:00 13.4 10.8 84 25 2   100.70     LegendNANA
17:00 12.3 10.7 90 8 3   100.66     LegendNANA
18:00 12.1 10.8 92 1 4   100.65     LegendNANA
19:00 12.6 11.3 91 2 3   100.72     LegendNANA
20:00 12.3 10.9 91 28 3   100.73     LegendNANA
21:00 13.0 11.4 90 27 2   100.81     LegendNANA
22:00 12.3 10.9 91 0 1   100.84     LegendNANA
23:00 12.3 11.4 94 25 2   100.90     LegendNANA

Notes on Data Quality.

Legend

  • E = Estimated
  • M = Missing
  • NA = Not Available
Date modified: